Location: Eppenbrunn
(49.1158°N, 7.5601°E)
Time: 12:06:03
(UTC+00:00)

Cosmos 676 Rocket - Pass Details

Date: 09 April 2020
Orbit: 755 x 783 km, 74.0° (Epoch: 25 May)

Event Time Altitude Azimuth Distance (km) Brightness Sun altitude
Rises 19:06:50 0° 179° (S) 3,242 7.0 -9.1°
Reaches altitude 10° 19:09:20 10° 172° (S) 2,315 6.2 -9.5°
Maximum altitude 19:14:12 40° 104° (ESE) 1,124 4.4 -10.2°
Drops below altitude 10° 19:19:05 10° 36° (NE) 2,314 6.4 -10.9°
Sets 19:21:33 0° 29° (NNE) 3,240 7.2 -11.3°
